Regional Weather Roundup
Issued by NWS

Home | Current Version | Previous Version | Text Only | Print | Product List | Glossary On
Versions: 1 2 3 4 5 6 7 8 9 10 11 12 13 14 15 16 17 18 19 20 21 22 23 24 25 26 27 28 29 30 31 32 33 34 35 36 37 38 39 40 41 42 43 44 45 46 47 48 49 50
565
ASMX46 KSGX 261604
RWRMX

MEXICAN WEATHER ROUNDUP
NATIONAL WEATHER SERVICE SAN DIEGO CA
900 AM PDT WED APR 26 2017

BAJA CALIFORNIA

CITY           SKY/WX    TMP DP  RH WIND       PRES   REMARKS
ENSENADA NW      N/A     65  32  29 CALM      29.89S
LA PAZ         SUNNY     70  54  56 S8        29.89
LORETO         MOSUNNY   77  55  47 W6        29.82R
MEXICALI         N/A    N/A N/A N/A MISG        N/A
S.J. DEL CABO  SUNNY     81  55  41 NW9       29.85R
TIJUANA        MOSUNNY   64  46  52 CALM      29.94R

NORTHWESTERN MEXICO

CITY           SKY/WX    TMP DP  RH WIND       PRES   REMARKS
CHIHUAHUA      MOSUNNY   73  36  25 W13       29.95
CULIACAN       MOSUNNY   81  63  54 CALM      29.84
GUAYMAS        SUNNY     79  61  53 CALM      29.80
HERMOSILLO     SUNNY     75  57  53 S5        29.88R
JUAREZ         PTSUNNY   64  37  36 NW10      29.85
LOS MOCHIS     MOSUNNY   77  63  61 SE6       29.85R
OBREGON        SUNNY     77  57  50 E5        29.81

NORTHEASTERN MEXICO

CITY           SKY/WX    TMP DP  RH WIND       PRES   REMARKS
MATAMOROS      PTSUNNY   86  75  70 S9G21     29.54  HX  95
MONCLOVA       MOSUNNY   90  23   9 W18       29.70R
MONTERREY      PTSUNNY   95  27   8 NW18G32   29.63R
NUEVO LAREDO   MOSUNNY   84  64  51 NW16      29.61
PIEDRAS NEGRAS SUNNY     81  57  44 NW16G23   29.69R
REYNOSA        MOSUNNY   88  64  45 W9        29.56
SALTILLO       PTSUNNY   77  55  47 S14       29.96R
TORREON        MOSUNNY   81  32  17 CALM      29.92R
VICTORIA       MOSUNNY   88  64  45 CALM      29.58

WESTERN MEXICO

CITY           SKY/WX    TMP DP  RH WIND       PRES   REMARKS
AGUASCALIENTES MOSUNNY   70  14  11 S12       30.15
COLIMA         MOSUNNY   77  61  57 CALM      29.95S
DURANGO        PTSUNNY   64  18  16 SW12      30.05
GUADALAJARA    MOSUNNY   72  16  12 NW6       30.11
MANZANILLO     MOSUNNY   82  70  65 CALM      29.85R
MAZATLAN       PTSUNNY   79  70  73 S7        29.85R
PTO. VALLARTA  MOSUNNY   79  66  65 CALM      29.84S
TEPIC          MOSUNNY   79  45  29 CALM      29.98S
URUAPAN        PTSUNNY   70  50  49 CALM      30.09S
ZACATECAS      PTSUNNY   68  21  17 W23       30.16R

CENTRAL MEXICO

CITY           SKY/WX    TMP DP  RH WIND       PRES   REMARKS
CUERNAVACA     PTSUNNY   79  36  21 CALM      30.02S
LEON           PTSUNNY   68  18  14 CALM      30.21R
MEXICO CITY    PTSUNNY   70  30  23 E3        30.20S
MORELIA        MOSUNNY   70  37  30 N5        30.16
POZA RICA      PTSUNNY   84  72  65 S5        29.64R
PUEBLA         PTSUNNY   66  34  30 E3        30.21F
QUERETARO      MOSUNNY   70  19  14 NW17      30.19S
S. LUIS POTOSI PTSUNNY   70  10  10 SW5       30.07S
TAMPICO        PTSUNNY   88  66  48 S6        29.55S
TOLUCA         PTSUNNY   61  32  33 NW7       30.29
VERACRUZ       PTSUNNY   88  72  58 SW12      29.60F

SOUTHERN MEXICO

CITY           SKY/WX    TMP DP  RH WIND       PRES   REMARKS
ACAPULCO       MOSUNNY   84  70  61 W6        29.85S
B. DE HUATULCO   N/A    N/A N/A N/A MISG        N/A
MINATITLAN     PTSUNNY   90  73  58 S21       29.66  HX  98
OAXACA         MOSUNNY   72  50  46 S5        30.11F
PTO. ESCONDIDO MOSUNNY   81  70  69 SW12      29.95S
TAPACHULA      SUNNY     90  70  51 CALM      29.84S HX  95
TUX. GUTIERREZ SUNNY     86  55  35 NE5       29.87F
VILLAHERMOSA   MOSUNNY   93  72  49 CALM      29.70S HX 100
ZIHUATANEJO    MOSUNNY   84  70  61 SW5       29.85R

YUCATAN PENINSULA

CITY           SKY/WX    TMP DP  RH WIND       PRES   REMARKS
CAMPECHE       SUNNY     91  70  49 SE12G23   29.67S HX  97
CANCUN         MOSUNNY   84  73  70 S18       29.81F
CHETUMAL       MOSUNNY   86  77  74 E16       29.77  HX  97
C. DEL CARMEN  PTSUNNY   88  70  55 SE14      29.68
COZUMEL        MOSUNNY   84  72  65 S12       29.80S
MERIDA         PTSUNNY   91  66  43 SE15      29.73F

$$





USA.gov is the U.S. government's official web portal to all federal, state and local government web resources and services.